Location: Borbetomagus
(49.6328°N, 8.3592°E)
Time: 00:56:51
(UTC+00:00)

Cosmos 2173 Rocket - Pass Details

Date: 19 May 2025
Orbit: 943 x 1000 km, 83.0° (Epoch: 22 June)

Event Time Altitude Azimuth Distance (km) Brightness Sun altitude
Rises 23:09:37 0° 352° (N) 3,732 8.7 -20.3°
Reaches altitude 10° 23:12:14 10° 357° (N) 2,775 7.6 -20.3°
Maximum altitude 23:18:29 55° 75° (ENE) 1,181 4.5 -20.4°
Enters shadow 23:21:47 28° 141° (SE) 1,775 4.9 -20.4°
